DW6869 Royal Palm Beach FL US current weather conditions

sailwx.info

Wind from 305 at 3 knots gusting 8

Air temperature 24.4° C
Dewpoint 17.7° C

Last reported at 2019-Nov-19 18:02 UTC.
Time now 2019-Nov-19 18:24 UTC

Location: N 26°48' W 080°18'.
View on Google Maps.

See reports from other nearby stations

  
Tides and Currents Weather Stations Pressure Air Temp Water Temp Dewpoint Dewpoint Depression Visibility Wind Speed Wind Dir Waves Ship Positions
date/time (UTC)wind fromknots sea level pressurealtimeterstation pressurevisibilityair tempwater tempwave heightnotes
2019-Nov-19 18:07 326 3 gusting 9 24.4
2019-Nov-19 18:02 305 3 gusting 8 24.4
2019-Nov-19 17:57 336 3 gusting 8 24.4
2019-Nov-19 17:52 311 3 gusting 8 24.4
2019-Nov-19 17:47 307 3 gusting 13 24.4
2019-Nov-19 17:42 355 4 gusting 13 24.4
2019-Nov-19 17:37 340 3 gusting 9 24.4
2019-Nov-19 17:33 330 2 gusting 6 23.9
2019-Nov-19 17:28 344 2 gusting 10 23.9
2019-Nov-19 17:22 272 3 gusting 10 23.9
2019-Nov-19 17:17 318 2 gusting 7 24.4
2019-Nov-19 17:12 24.4
2019-Nov-19 17:07 303 2 gusting 7 24.4
2019-Nov-19 17:02 205 2 gusting 7 24.4
2019-Nov-19 16:57 277 1 gusting 4 24.4
2019-Nov-19 16:53 195 2 gusting 6 24.4
2019-Nov-19 16:47 333 2 gusting 6 23.9
2019-Nov-19 16:43 315 1 gusting 6 23.9
2019-Nov-19 16:37 332 1 gusting 6 23.9
2019-Nov-19 16:32 340 1 gusting 5 23.9
2019-Nov-19 16:28 343 2 gusting 5 24.4
2019-Nov-19 16:22 341 2 gusting 10 24.4
2019-Nov-19 16:17 302 2 gusting 10 24.4
2019-Nov-19 16:12 224 2 gusting 8 24.4
2019-Nov-19 16:07 175 1 gusting 8 24.4
2019-Nov-19 16:02 23.9
2019-Nov-19 15:57 243 2 gusting 8 23.9
2019-Nov-19 15:52 212 3 gusting 8 23.9
2019-Nov-19 15:47 180 2 gusting 6 23.9
2019-Nov-19 15:42 185 2 gusting 5 23.9
2019-Nov-19 15:37 220 2 gusting 5 23.9
2019-Nov-19 15:33 203 2 gusting 6 23.9
2019-Nov-19 15:27 221 3 gusting 6 23.3
2019-Nov-19 15:22 262 2 gusting 6 23.3
2019-Nov-19 15:17 201 2 gusting 6 22.8
2019-Nov-19 15:12 218 3 gusting 8 22.8
2019-Nov-19 15:07 190 3 gusting 8 22.8
2019-Nov-19 15:02 206 3 gusting 8 22.2
2019-Nov-19 14:57 230 3 gusting 6 22.2
2019-Nov-19 14:52 222 2 gusting 5 21.7
2019-Nov-19 14:47 203 3 gusting 7 21.1
2019-Nov-19 14:42 218 2 gusting 7 20.6
2019-Nov-19 14:37 207 2 gusting 6 20.6
2019-Nov-19 14:32 215 2 gusting 5 20.0
2019-Nov-19 14:27 217 1 gusting 5 19.4
2019-Nov-19 14:22 183 0 gusting 3 18.9
2019-Nov-19 14:17 217 0 gusting 3 18.9
2019-Nov-19 14:13 220 0 gusting 3 18.3
2019-Nov-19 14:07 228 0 gusting 3 17.8
2019-Nov-19 14:03 272 0 gusting 2 17.8
2019-Nov-19 13:58 272 17.8
2019-Nov-19 13:52 273 17.2
2019-Nov-19 13:47 273 17.2
2019-Nov-19 13:42 273 16.7
2019-Nov-19 13:37 273 16.7
2019-Nov-19 13:32 273 16.7
2019-Nov-19 13:28 273 16.7
2019-Nov-19 13:23 273 0 gusting 1 16.1
2019-Nov-19 13:17 273 0 gusting 2 16.1
2019-Nov-19 13:12 273 0 gusting 2 15.6
2019-Nov-19 13:07 274 0 gusting 2 15.6
2019-Nov-19 13:02 275 0 gusting 2 15.6
2019-Nov-19 12:57 228 0 gusting 2 15.0
2019-Nov-19 12:52 197 15.0
2019-Nov-19 12:47 197 14.4
2019-Nov-19 12:41 197 14.4
2019-Nov-19 12:37 197 14.4
2019-Nov-19 12:32 197 14.4
2019-Nov-19 12:26 197 14.4
2019-Nov-19 12:22 197 0 gusting 1 14.4
2019-Nov-19 12:16 197 14.4
2019-Nov-19 12:12 197 14.4
2019-Nov-19 12:06 197 14.4
2019-Nov-19 12:02 197 14.4
2019-Nov-19 11:56 197 14.4
2019-Nov-19 11:51 197 14.4
2019-Nov-19 11:47 197 14.4
2019-Nov-19 11:41 197 14.4
2019-Nov-19 11:36 197 15.0
2019-Nov-19 11:32 197 15.0
2019-Nov-19 11:26 197 15.0
2019-Nov-19 11:21 197 0 gusting 1 15.0
2019-Nov-19 11:16 197 0 gusting 2 15.0
2019-Nov-19 11:11 197 1 gusting 2 14.4
2019-Nov-19 11:06 197 1 gusting 2 14.4
2019-Nov-19 11:01 197 0 gusting 2 14.4
2019-Nov-19 10:56 197 14.4
2019-Nov-19 10:51 197 13.9
2019-Nov-19 10:46 197 13.9
2019-Nov-19 10:41 197 13.9
2019-Nov-19 10:36 197 13.3
2019-Nov-19 10:31 197 13.3
2019-Nov-19 10:26 197 13.3
2019-Nov-19 10:21 197 13.3
2019-Nov-19 10:16 197 13.3
2019-Nov-19 10:11 197 13.3
2019-Nov-19 10:06 197 13.3
2019-Nov-19 10:01 197 12.8
2019-Nov-19 09:56 197 0 gusting 1 12.8
2019-Nov-19 09:51 197 0 gusting 2 12.8
2019-Nov-19 09:46 197 0 gusting 2 12.8
2019-Nov-19 09:41 197 12.8
2019-Nov-19 09:37 197 12.2
2019-Nov-19 09:31 197 12.8
2019-Nov-19 09:26 197 12.2
2019-Nov-19 09:21 197 12.8
2019-Nov-19 09:16 197 12.8
2019-Nov-19 09:11 197 12.8
2019-Nov-19 09:06 197 12.8
2019-Nov-19 09:01 197 12.8
2019-Nov-19 08:56 197 12.8
2019-Nov-19 08:51 197 12.8
2019-Nov-19 08:46 197 12.8
2019-Nov-19 08:41 197 12.8
2019-Nov-19 08:36 197 12.8
2019-Nov-19 08:31 197 12.8
2019-Nov-19 08:26 197 0 gusting 1 12.8
2019-Nov-19 08:21 197 0 gusting 1 12.8
2019-Nov-19 08:16 197 12.8
2019-Nov-19 08:11 197 12.8
2019-Nov-19 08:06 197 12.8
2019-Nov-19 08:01 197 0 gusting 1 12.8
2019-Nov-19 07:56 197 0 gusting 1 12.8
2019-Nov-19 07:51 197 0 gusting 1 12.8
2019-Nov-19 07:46 197 0 gusting 1 12.8
2019-Nov-19 07:41 197 12.8
2019-Nov-19 07:36 197 12.8
2019-Nov-19 07:31 197 12.8
2019-Nov-19 07:26 197 12.8
2019-Nov-19 07:21 197 12.8
2019-Nov-19 07:16 197 12.8
2019-Nov-19 07:12 197 12.8
2019-Nov-19 07:06 197 12.8
2019-Nov-19 07:01 197 12.8
2019-Nov-19 06:56 197 12.8
2019-Nov-19 06:51 197 13.3
2019-Nov-19 06:46 197 13.3
2019-Nov-19 06:41 197 13.3
2019-Nov-19 06:36 197 13.3
2019-Nov-19 06:31 197 13.3
2019-Nov-19 06:26 197 13.3
2019-Nov-19 06:21 197 13.3
2019-Nov-19 06:16 197 13.3
2019-Nov-19 06:11 197 13.3
2019-Nov-19 06:06 197 0 gusting 1 13.3
2019-Nov-19 06:01 197 0 gusting 1 13.3
2019-Nov-19 05:56 197 0 gusting 1 13.3
2019-Nov-19 05:51 197 0 gusting 1 13.3
2019-Nov-19 05:46 197 13.3
2019-Nov-19 05:41 197 13.3
2019-Nov-19 05:36 197 13.3
2019-Nov-19 05:31 197 13.3
2019-Nov-19 05:26 197 13.3
2019-Nov-19 05:21 197 13.3
2019-Nov-19 05:16 197 13.9
2019-Nov-19 05:11 197 13.9
2019-Nov-19 05:06 197 13.9
2019-Nov-19 05:01 197 13.9
2019-Nov-19 04:56 197 13.9
2019-Nov-19 04:51 197 13.9
2019-Nov-19 04:46 197 13.9
2019-Nov-19 04:41 197 13.9
2019-Nov-19 04:36 197 13.9
2019-Nov-19 04:31 197 13.9
2019-Nov-19 04:26 197 14.4
2019-Nov-19 04:21 197 0 gusting 1 14.4
2019-Nov-19 04:16 197 0 gusting 1 14.4
2019-Nov-19 04:11 197 0 gusting 1 14.4
2019-Nov-19 04:06 197 14.4
2019-Nov-19 04:01 197 14.4
2019-Nov-19 03:56 197 14.4
2019-Nov-19 03:51 197 0 gusting 1 14.4
2019-Nov-19 03:46 197 0 gusting 2 14.4
2019-Nov-19 03:41 197 14.4
2019-Nov-19 03:36 197 14.4
2019-Nov-19 03:31 197 0 gusting 1 14.4
2019-Nov-19 03:26 197 0 gusting 1 14.4
2019-Nov-19 03:21 197 14.4
2019-Nov-19 03:16 197 0 gusting 1 14.4
2019-Nov-19 03:11 197 14.4
2019-Nov-19 03:06 197 14.4
2019-Nov-19 03:01 197 14.4
2019-Nov-19 02:56 197 14.4
2019-Nov-19 02:51 197 14.4
2019-Nov-19 02:46 197 14.4
2019-Nov-19 02:41 197 14.4
2019-Nov-19 02:36 197 14.4
2019-Nov-19 02:31 197 0 gusting 1 14.4
2019-Nov-19 02:26 197 14.4
2019-Nov-19 02:21 197 14.4
2019-Nov-19 02:16 197 14.4
2019-Nov-19 02:11 197 14.4
2019-Nov-19 02:06 197 14.4
2019-Nov-19 02:01 197 14.4
2019-Nov-19 01:57 197 14.4
2019-Nov-19 01:51 197 14.4
2019-Nov-19 01:46 197 14.4
2019-Nov-19 01:41 197 14.4
2019-Nov-19 01:36 197 15.0
2019-Nov-19 01:31 197 15.0
2019-Nov-19 01:26 197 15.0
2019-Nov-19 01:21 197 15.0
2019-Nov-19 01:16 197 15.0
2019-Nov-19 01:11 197 15.0
2019-Nov-19 01:06 197 15.0
2019-Nov-19 01:01 197 15.6
2019-Nov-19 00:56 197 15.6
2019-Nov-19 00:51 197 15.6
2019-Nov-19 00:46 197 15.6
2019-Nov-19 00:41 197 15.6
2019-Nov-19 00:36 197 15.6
2019-Nov-19 00:31 197 16.1
2019-Nov-19 00:26 197 16.1
2019-Nov-19 00:21 197 16.1
2019-Nov-19 00:16 197 16.1
2019-Nov-19 00:11 197 16.1
2019-Nov-19 00:06 197 0 gusting 1 16.7
2019-Nov-19 00:02 197 0 gusting 1 16.7
2019-Nov-18 23:56 197 16.7
2019-Nov-18 23:51 197 16.7
2019-Nov-18 23:46 197 16.7
2019-Nov-18 23:41 197 16.7
2019-Nov-18 23:36 197 17.2
2019-Nov-18 23:31 197 17.2
2019-Nov-18 23:26 197 17.2
2019-Nov-18 23:21 197 17.8
2019-Nov-18 23:16 197 17.8
2019-Nov-18 23:11 197 17.8
2019-Nov-18 23:06 197 18.3
2019-Nov-18 23:01 197 18.3
2019-Nov-18 22:56 197 18.3
2019-Nov-18 22:51 197 0 gusting 0 18.3
2019-Nov-18 22:46 197 0 gusting 0 18.9
2019-Nov-18 22:41 197 19.4
2019-Nov-18 22:36 197 19.4
2019-Nov-18 22:31 197 19.4
2019-Nov-18 22:26 197 20.0
2019-Nov-18 22:22 197 20.0
2019-Nov-18 22:16 197 20.0
2019-Nov-18 22:12 197 20.0
2019-Nov-18 22:06 197 0 gusting 2 20.6
2019-Nov-18 22:02 195 0 gusting 1 20.6
2019-Nov-18 21:56 239 0 gusting 4 20.6
2019-Nov-18 21:51 236 0 gusting 4 20.6
2019-Nov-18 21:47 264 0 gusting 2 21.1
2019-Nov-18 21:41 347 0 gusting 3 21.1
2019-Nov-18 21:36 235 1 gusting 6 21.1
2019-Nov-18 21:30 202 1 gusting 6 21.1
2019-Nov-18 21:25 302 1 gusting 5 21.1
2019-Nov-18 21:20 298 1 gusting 5 21.1
2019-Nov-18 21:16 291 1 gusting 3 21.1
2019-Nov-18 21:10 288 1 gusting 5 21.1
2019-Nov-18 21:05 339 1 gusting 5 21.7
2019-Nov-18 21:01 327 1 gusting 6 21.7
2019-Nov-18 20:55 285 1 gusting 6 21.7
2019-Nov-18 20:51 222 1 gusting 6 21.7
2019-Nov-18 20:46 322 2 gusting 6 21.7
2019-Nov-18 20:40 301 2 gusting 10 21.7
2019-Nov-18 20:36 347 2 gusting 10 22.2
2019-Nov-18 20:32 289 1 gusting 6 22.2
2019-Nov-18 20:27 342 2 gusting 6 22.2
2019-Nov-18 20:21 276 3 gusting 6 22.2
2019-Nov-18 20:17 316 3 gusting 6 22.2
2019-Nov-18 20:10 322 3 gusting 9 22.8
2019-Nov-18 20:07 005 2 gusting 9 22.8
2019-Nov-18 20:01 274 2 gusting 6 22.8
2019-Nov-18 19:55 305 3 gusting 6 22.8
2019-Nov-18 19:52 247 2 gusting 7 22.2
2019-Nov-18 19:45 278 3 gusting 9 22.2
2019-Nov-18 19:41 278 3 gusting 9 22.2
2019-Nov-18 19:35 323 3 gusting 9 22.2
2019-Nov-18 19:30 308 2 gusting 7 22.2
2019-Nov-18 19:26 341 2 gusting 7 21.7
2019-Nov-18 19:20 349 2 gusting 8 21.7
2019-Nov-18 19:16 264 2 gusting 8 22.2
2019-Nov-18 19:10 280 2 gusting 8 21.7
2019-Nov-18 19:05 328 2 gusting 6 21.7
2019-Nov-18 19:01 330 2 gusting 7 21.7
2019-Nov-18 18:55 296 2 gusting 7 21.7
2019-Nov-18 18:50 345 2 gusting 7 21.1
2019-Nov-18 18:46 296 2 gusting 6 21.1
2019-Nov-18 18:40 300 2 gusting 6 21.1
2019-Nov-18 18:35 355 2 gusting 7 21.7
2019-Nov-18 18:30 356 2 gusting 7 21.7
2019-Nov-18 18:25 016 2 gusting 7 21.7
2019-Nov-18 18:20 286 2 gusting 5 21.7
2019-Nov-18 18:16 256 2 gusting 5 21.1
2019-Nov-18 18:12 310 2 gusting 5 21.1
2019-Nov-18 18:06 330 2 gusting 6 21.1
2019-Nov-18 18:00 234 4 gusting 7 20.6
2019-Nov-18 17:55 320 4 gusting 7 20.6
2019-Nov-18 17:50 330 3 gusting 7 20.6
2019-Nov-18 17:45 330 3 gusting 6 20.6
2019-Nov-18 17:41 314 3 gusting 8 20.6
2019-Nov-18 17:35 312 3 gusting 11 20.6
2019-Nov-18 17:30 338 3 gusting 11 20.6
2019-Nov-18 17:26 348 2 gusting 9 20.0
2019-Nov-18 17:22 317 2 gusting 6 20.0
2019-Nov-18 17:16 342 2 gusting 6 20.0
2019-Nov-18 17:11 337 1 gusting 6 20.0
2019-Nov-18 17:06 311 2 gusting 6 19.4
2019-Nov-18 17:01 344 2 gusting 6 19.4
2019-Nov-18 16:55 277 1 gusting 6 19.4
2019-Nov-18 16:51 291 1 gusting 5 18.9
2019-Nov-18 16:45 291 2 gusting 8 18.9
2019-Nov-18 16:40 311 2 gusting 8 18.9
2019-Nov-18 16:36 027 1 gusting 6 18.9
2019-Nov-18 16:31 243 1 gusting 6 18.3
2019-Nov-18 16:25 118 2 gusting 6 18.3
2019-Nov-18 16:21 221 2 gusting 8 18.3
2019-Nov-18 16:15 304 2 gusting 8 17.8
2019-Nov-18 16:10 234 1 gusting 7 17.8
2019-Nov-18 16:06 295 1 gusting 6 17.2
2019-Nov-18 16:01 192 0 gusting 4 16.7
2019-Nov-18 15:55 337 1 gusting 7 16.7
2019-Nov-18 15:51 227 2 gusting 7 16.7
2019-Nov-18 15:46 222 1 gusting 6 16.1
2019-Nov-18 15:41 283 1 gusting 6 15.6
2019-Nov-18 15:35 346 1 gusting 3 15.6
2019-Nov-18 15:30 223 1 gusting 5 15.6
2019-Nov-18 15:26 198 1 gusting 5 15.0
2019-Nov-18 15:21 208 0 gusting 5 15.0
2019-Nov-18 15:16 197 0 gusting 3 15.0
2019-Nov-18 15:10 243 0 gusting 2 15.0
2019-Nov-18 15:05 247 0 gusting 3 14.4
2019-Nov-18 15:00 314 0 gusting 3 14.4
2019-Nov-18 14:55 293 0 gusting 5 14.4
2019-Nov-18 14:51 293 1 gusting 5 14.4
2019-Nov-18 14:45 355 1 gusting 5 14.4
2019-Nov-18 14:40 326 1 gusting 4 14.4
2019-Nov-18 14:35 212 1 gusting 4 14.4
2019-Nov-18 14:30 295 2 gusting 6 14.4
2019-Nov-18 14:25 343 1 gusting 6 14.4
2019-Nov-18 14:21 324 1 gusting 6 14.4
2019-Nov-18 14:15 219 1 gusting 4 14.4
2019-Nov-18 14:11 332 1 gusting 5 14.4
2019-Nov-18 14:06 019 1 gusting 5 14.4
2019-Nov-18 14:01 236 1 gusting 4 14.4
2019-Nov-18 13:56 233 0 gusting 4 14.4
2019-Nov-18 13:51 274 0 gusting 3 14.4
2019-Nov-18 13:45 239 0 gusting 2 13.9
2019-Nov-18 13:42 216 0 gusting 2 13.9
2019-Nov-18 13:35 213 0 gusting 1 13.9
2019-Nov-18 13:30 212 0 gusting 2 13.9
2019-Nov-18 13:25 212 0 gusting 2 13.9
2019-Nov-18 13:20 324 0 gusting 4 13.9
2019-Nov-18 13:15 324 1 gusting 4 13.9
2019-Nov-18 13:11 326 1 gusting 4 13.9
2019-Nov-18 13:05 014 1 gusting 4 13.9
2019-Nov-18 13:00 321 2 gusting 4 13.9
2019-Nov-18 12:56 318 1 gusting 3 13.9
2019-Nov-18 12:50 330 1 gusting 6 13.9
2019-Nov-18 12:45 241 1 gusting 6 13.9
2019-Nov-18 12:40 332 1 gusting 3 13.9
2019-Nov-18 12:35 280 1 gusting 3 13.9
2019-Nov-18 12:30 332 1 gusting 3 13.9
2019-Nov-18 12:26 326 1 gusting 3 13.9
2019-Nov-18 12:21 326 1 gusting 3 13.9
2019-Nov-18 12:15 293 1 gusting 4 13.9
2019-Nov-18 12:11 338 1 gusting 4 13.9
2019-Nov-18 12:05 306 0 gusting 2 13.9
2019-Nov-18 12:00 330 0 gusting 2 13.9
2019-Nov-18 11:56 290 0 gusting 2 13.9
2019-Nov-18 11:50 330 1 gusting 2 13.9
2019-Nov-18 11:45 329 0 gusting 2 13.9
2019-Nov-18 11:40 329 0 gusting 2 13.9
2019-Nov-18 11:35 332 0 gusting 1 13.9
2019-Nov-18 11:31 332 0 gusting 2 13.9
2019-Nov-18 11:25 333 0 gusting 2 13.9
2019-Nov-18 11:20 334 1 gusting 3 13.9
2019-Nov-18 11:15 335 1 gusting 3 13.9
2019-Nov-18 11:10 329 1 gusting 3 13.9
2019-Nov-18 11:05 324 0 gusting 2 13.9
2019-Nov-18 11:00 313 0 gusting 1 13.9
2019-Nov-18 10:55 312 0 gusting 2 13.9
2019-Nov-18 10:50 314 0 gusting 2 13.9
2019-Nov-18 10:45 314 0 gusting 1 13.9
2019-Nov-18 10:40 317 0 gusting 3 13.9
2019-Nov-18 10:35 317 0 gusting 3 13.9
2019-Nov-18 10:30 328 1 gusting 3 13.9
2019-Nov-18 10:25 321 1 gusting 3 13.9
2019-Nov-18 10:20 309 1 gusting 3 13.9
2019-Nov-18 10:15 322 1 gusting 3 13.9
2019-Nov-18 10:10 334 1 gusting 5 13.9
2019-Nov-18 10:05 334 1 gusting 5 13.9
2019-Nov-18 10:00 309 0 gusting 2 13.9
2019-Nov-18 09:55 307 1 gusting 3 13.9
2019-Nov-18 09:50 244 1 gusting 3 13.9
2019-Nov-18 09:45 289 1 gusting 3 13.9
2019-Nov-18 09:40 299 1 gusting 3 13.9
2019-Nov-18 09:35 332 1 gusting 3 13.9
2019-Nov-18 09:30 309 1 gusting 3 13.9
2019-Nov-18 09:25 289 0 gusting 3 13.9
2019-Nov-18 09:20 282 0 gusting 2 13.9
2019-Nov-18 09:10 284 0 gusting 2 13.9
2019-Nov-18 09:00 282 0 gusting 1 13.9
2019-Nov-18 08:55 282 0 gusting 2 13.9
2019-Nov-18 08:50 282 0 gusting 3 13.3
2019-Nov-18 08:45 286 0 gusting 3 13.3
2019-Nov-18 08:40 291 0 gusting 2 13.3
2019-Nov-18 08:35 281 0 gusting 2 13.3
2019-Nov-18 08:30 279 0 gusting 3 13.3
2019-Nov-18 08:25 278 0 gusting 3 13.3
2019-Nov-18 08:20 261 0 gusting 3 13.9
2019-Nov-18 08:15 305 0 gusting 2 13.9
2019-Nov-18 08:10 304 1 gusting 6 13.9
2019-Nov-18 08:05 295 1 gusting 6 13.9
2019-Nov-18 08:00 243 0 gusting 6 13.9
2019-Nov-18 07:55 203 0 gusting 4 13.9
2019-Nov-18 07:50 271 0 gusting 1 13.9
2019-Nov-18 07:45 270 0 gusting 2 13.9
2019-Nov-18 07:40 278 0 gusting 2 13.9
2019-Nov-18 07:35 280 0 gusting 2 13.9
2019-Nov-18 07:30 278 0 gusting 2 13.9
2019-Nov-18 07:25 278 0 gusting 2 13.9
2019-Nov-18 07:20 305 0 gusting 2 13.9
2019-Nov-18 07:15 305 0 gusting 2 13.9
2019-Nov-18 07:10 301 0 gusting 2 13.9
2019-Nov-18 07:05 262 0 gusting 2 13.9
2019-Nov-18 07:00 346 0 gusting 2 13.9
2019-Nov-18 06:55 347 0 gusting 1 13.9
2019-Nov-18 06:50 347 0 gusting 2 13.9
2019-Nov-18 06:45 347 0 gusting 2 13.9
2019-Nov-18 06:40 307 0 gusting 1 13.9
2019-Nov-18 06:35 312 0 gusting 2 13.9
2019-Nov-18 06:30 312 1 gusting 3 13.9
2019-Nov-18 06:25 309 1 gusting 3 13.9
2019-Nov-18 06:20 329 1 gusting 3 13.9
2019-Nov-18 06:15 334 1 gusting 4 13.9
2019-Nov-18 06:10 330 2 gusting 5 13.9
2019-Nov-18 06:05 291 2 gusting 5 13.9
2019-Nov-18 06:00 327 1 gusting 5 13.9
2019-Nov-18 05:55 324 1 gusting 5 13.9
2019-Nov-18 05:50 328 1 gusting 5 13.9
2019-Nov-18 05:45 274 1 gusting 6 13.9
2019-Nov-18 05:40 326 2 gusting 6 13.9
2019-Nov-18 05:35 320 1 gusting 6 13.9
2019-Nov-18 05:30 324 2 gusting 6 13.9
2019-Nov-18 05:25 263 3 gusting 6 13.9
2019-Nov-18 05:20 305 3 gusting 7 13.9
2019-Nov-18 05:15 343 2 gusting 7 14.4
2019-Nov-18 05:10 323 1 gusting 3 14.4
2019-Nov-18 05:05 322 1 gusting 3 14.4
2019-Nov-18 05:00 309 1 gusting 3 14.4
2019-Nov-18 04:55 316 1 gusting 3 14.4
2019-Nov-18 04:50 292 0 gusting 3 14.4
2019-Nov-18 04:45 298 0 gusting 2 14.4
2019-Nov-18 04:39 348 0 gusting 2 14.4
2019-Nov-18 04:35 348 0 gusting 3 14.4
2019-Nov-18 04:30 348 1 gusting 3 14.4
2019-Nov-18 04:25 333 1 gusting 3 14.4
2019-Nov-18 04:19 239 0 gusting 3 14.4
2019-Nov-18 04:15 263 0 gusting 2 14.4
2019-Nov-18 04:09 236 0 gusting 2 14.4
2019-Nov-18 04:05 222 0 gusting 2 14.4
2019-Nov-18 03:59 221 0 gusting 3 14.4
2019-Nov-18 03:54 293 0 gusting 3 14.4
2019-Nov-18 03:49 295 0 gusting 2 14.4
2019-Nov-18 03:44 264 0 gusting 2 14.4
2019-Nov-18 03:39 268 0 gusting 2 14.4
2019-Nov-18 03:34 264 0 gusting 2 14.4
2019-Nov-18 03:29 254 0 gusting 3 14.4
2019-Nov-18 03:24 254 0 gusting 3 14.4
2019-Nov-18 03:19 297 0 gusting 2 14.4
2019-Nov-18 03:14 299 0 gusting 2 14.4
2019-Nov-18 03:09 296 0 gusting 2 14.4
2019-Nov-18 03:04 295 0 gusting 2 14.4
2019-Nov-18 02:59 297 0 gusting 1 14.4
2019-Nov-18 02:54 299 14.4
2019-Nov-18 02:49 299 14.4
2019-Nov-18 02:44 299 14.4
2019-Nov-18 02:39 299 0 gusting 2 14.4
2019-Nov-18 02:34 299 0 gusting 2 14.4
2019-Nov-18 02:29 299 0 gusting 1 14.4
2019-Nov-18 02:24 299 0 gusting 1 14.4
2019-Nov-18 02:19 299 0 gusting 2 14.4
2019-Nov-18 02:14 297 0 gusting 2 14.4
2019-Nov-18 02:09 305 0 gusting 2 14.4
2019-Nov-18 02:04 325 14.4
2019-Nov-18 01:59 325 0 gusting 3 14.4
2019-Nov-18 01:54 324 1 gusting 4 14.4
2019-Nov-18 01:49 334 1 gusting 4 14.4
2019-Nov-18 01:44 242 0 gusting 3 14.4
2019-Nov-18 01:39 286 1 gusting 7 14.4
2019-Nov-18 01:34 273 1 gusting 7 14.4
2019-Nov-18 01:29 328 1 gusting 3 14.4
2019-Nov-18 01:24 216 1 gusting 3 14.4
2019-Nov-18 01:19 260 1 gusting 3 14.4
2019-Nov-18 01:14 341 1 gusting 3 14.4
2019-Nov-18 01:09 343 1 gusting 3 14.4
2019-Nov-18 01:04 336 2 gusting 6 14.4
2019-Nov-18 00:59 347 2 gusting 6 14.4
2019-Nov-18 00:54 348 2 gusting 5 14.4
2019-Nov-18 00:49 016 2 gusting 5 14.4
2019-Nov-18 00:44 337 3 gusting 6 14.4
2019-Nov-18 00:39 14.4
2019-Nov-18 00:34 328 2 gusting 6 15.0
2019-Nov-18 00:29 332 2 gusting 5 15.0
2019-Nov-18 00:24 343 2 gusting 6 15.0
2019-Nov-18 00:19 334 3 gusting 6 15.0
2019-Nov-18 00:14 325 3 gusting 6 15.0
2019-Nov-18 00:09 317 3 gusting 6 15.0
2019-Nov-18 00:04 348 2 gusting 6 15.6
2019-Nov-17 23:59 010 3 gusting 6 15.6
2019-Nov-17 23:54 15.6
2019-Nov-17 23:49 339 2 gusting 7 15.6
2019-Nov-17 23:44 296 3 gusting 7 15.6
2019-Nov-17 23:39 334 3 gusting 7 15.6
2019-Nov-17 23:34 347 3 gusting 9 16.1
2019-Nov-17 23:29 333 3 gusting 9 16.1
2019-Nov-17 23:24 294 2 gusting 7 16.1
2019-Nov-17 23:19 16.1
2019-Nov-17 23:14 336 2 gusting 5 16.1
2019-Nov-17 23:09 327 2 gusting 5 16.1
2019-Nov-17 23:04 330 3 gusting 9 16.1
2019-Nov-17 22:59 319 3 gusting 9 16.1
2019-Nov-17 22:54 317 2 gusting 8 16.1
2019-Nov-17 22:49 332 2 gusting 6 16.1
2019-Nov-17 22:44 281 2 gusting 6 16.7
2019-Nov-17 22:39 316 3 gusting 6 16.7
2019-Nov-17 22:34 327 3 gusting 7 16.7
2019-Nov-17 22:30 322 4 gusting 8 16.7
2019-Nov-17 22:25 315 4 gusting 8 16.7
2019-Nov-17 22:15 312 3 gusting 6 16.7
2019-Nov-17 22:10 326 3 gusting 6 16.7
2019-Nov-17 22:00 327 2 gusting 6 16.7
2019-Nov-17 21:49 326 3 gusting 8 16.7
2019-Nov-17 21:39 326 3 gusting 9 17.2
2019-Nov-17 21:30 314 2 gusting 6 17.2
2019-Nov-17 21:24 320 2 gusting 7 17.2
2019-Nov-17 21:19 319 2 gusting 7 17.2
2019-Nov-17 21:09 293 3 gusting 7 17.2
2019-Nov-17 20:59 341 2 gusting 7 17.2
2019-Nov-17 20:55 333 3 gusting 7 17.2
2019-Nov-17 20:44 341 3 gusting 9 17.2
2019-Nov-17 20:34 320 3 gusting 8 17.2
2019-Nov-17 20:29 324 3 gusting 7 17.2
2019-Nov-17 20:24 324 3 gusting 8 17.2
2019-Nov-17 20:19 328 4 gusting 8 17.2
2019-Nov-17 20:14 341 3 gusting 9 17.2
2019-Nov-17 20:04 330 3 gusting 7 17.2
2019-Nov-17 19:59 331 3 gusting 7 17.2
2019-Nov-17 19:49 320 3 gusting 10 17.2
2019-Nov-17 19:39 316 4 gusting 9 17.2
2019-Nov-17 19:34 340 3 gusting 8 17.2
2019-Nov-17 19:29 329 2 gusting 6 17.2
2019-Nov-17 19:19 272 3 gusting 8 17.2
2019-Nov-17 19:14 323 3 gusting 6 17.2
2019-Nov-17 19:05 322 3 gusting 8 17.2
2019-Nov-17 18:59 332 3 gusting 8 17.2
2019-Nov-17 18:49 296 3 gusting 7 16.7
2019-Nov-17 18:44 330 3 gusting 8 16.7
2019-Nov-17 18:39 303 4 gusting 9 16.7
2019-Nov-17 18:34 301 4 gusting 9 16.7
2019-Nov-17 18:29 027 3 gusting 8 16.7
2019-Nov-17 18:25 326 2 gusting 7 16.7
2019-Nov-17 18:19 334 2 gusting 5 16.7
2019-Nov-17 18:10 342 2 gusting 6 16.7